| time (UTC) | temp F | wind direction | speed MPH | gust MPH | rain 1hr in | rain 24hr in | rain mn in | humidity % | barometer mb |
| 20260507003510 | 73 | 219 | 8.0 | 16.0 | 0.00 | 0.00 | 0.00 | 40 | 1011.4 |
| 20260507002239 | 74 | 222 | 7.0 | 17.0 | 0.00 | 0.00 | 0.00 | 39 | 1011.4 |
| 20260507001108 | 74 | 238 | 7.0 | 17.0 | 0.00 | 0.00 | 0.00 | 39 | 1011.4 |
| 20260506235937 | 74 | 193 | 5.0 | 15.0 | 0.00 | 0.00 | 0.00 | 39 | 1011.4 |
| 20260506234744 | 74 | 201 | 5.0 | 14.0 | 0.00 | 0.00 | 0.00 | 39 | 1011.4 |
| 20260506232252 | 74 | 253 | 6.0 | 18.0 | 0.00 | 0.00 | 0.00 | 39 | 1011.6 |
| 20260506231048 | 74 | 244 | 7.0 | 15.0 | 0.00 | 0.00 | 0.00 | 43 | 1011.7 |
| 20260506225836 | 74 | 220 | 6.0 | 17.0 | 0.00 | 0.00 | 0.00 | 43 | 1011.8 |
| 20260506224641 | 74 | 207 | 6.0 | 17.0 | 0.00 | 0.00 | 0.00 | 43 | 1012.0 |
| 20260506223450 | 74 | 200 | 5.0 | 15.0 | 0.00 | 0.00 | 0.00 | 43 | 1012.1 |
| 20260506222309 | 75 | 208 | 6.0 | 16.0 | 0.00 | 0.00 | 0.00 | 43 | 1012.2 |
| 20260506221107 | 75 | 222 | 5.0 | 16.0 | 0.00 | 0.00 | 0.00 | 44 | 1012.3 |
| 20260506215856 | 75 | 260 | 3.0 | 15.0 | 0.00 | 0.00 | 0.00 | 42 | 1012.4 |
| 20260506214638 | 74 | 241 | 5.0 | 19.0 | 0.00 | 0.00 | 0.00 | 43 | 1012.4 |
| 20260506212054 | 74 | 233 | 7.0 | 16.0 | 0.00 | 0.00 | 0.00 | 41 | 1012.7 |
| 20260506210820 | 74 | 247 | 3.0 | 16.0 | 0.00 | 0.00 | 0.00 | 43 | 1012.9 |
| 20260506204254 | 74 | 88 | 0.0 | 0.0 | 0.00 | 0.00 | 0.00 | 42 | 1013.2 |
| 20260506201833 | 72 | 123 | 0.0 | 0.0 | 0.00 | 0.00 | 0.00 | 42 | 1013.5 |
| 20260506200631 | 72 | 143 | 0.0 | 0.0 | 0.00 | 0.00 | 0.00 | 42 | 1013.6 |
| 20260506195436 | 71 | 155 | 0.0 | 0.0 | 0.00 | 0.00 | 0.00 | 41 | 1013.6 |
| 20260506194207 | 70 | 178 | 0.0 | 0.0 | 0.00 | 0.00 | 0.00 | 44 | 1013.9 |
| 20260506193030 | 69 | 240 | 0.0 | 0.0 | 0.00 | 0.00 | 0.00 | 43 | 1014.0 |
| 20260506191855 | 69 | 265 | 0.0 | 0.0 | 0.00 | 0.00 | 0.00 | 44 | 1014.2 |
| 20260506190648 | 68 | 275 | 0.0 | 0.0 | 0.00 | 0.00 | 0.00 | 44 | 1014.7 |
| 20260506182831 | 67 | 159 | 0.0 | 0.0 | 0.00 | 0.00 | 0.00 | 45 | 1014.5 |
| 20260506181635 | 66 | 162 | 0.0 | 0.0 | 0.00 | 0.00 | 0.00 | 45 | 1014.5 |
| 20260506180429 | 66 | 130 | 0.0 | 1.0 | 0.00 | 0.00 | 0.00 | 43 | 1014.6 |
| 20260506175216 | 65 | 82 | 0.0 | 4.0 | 0.00 | 0.00 | 0.00 | 43 | 1014.9 |
| 20260506174038 | 65 | 115 | 0.0 | 5.0 | 0.00 | 0.00 | 0.00 | 42 | 1014.8 |
| 20260506172816 | 64 | 155 | 0.0 | 0.0 | 0.00 | 0.00 | 0.00 | 44 | 1015.0 |
| 20260506171544 | 63 | 163 | 0.0 | 0.0 | 0.00 | 0.00 | 0.00 | 41 | 1015.3 |
| 20260506170350 | 63 | 88 | 0.0 | 0.0 | 0.00 | 0.00 | 0.00 | 42 | 1015.3 |
| 20260506165123 | 63 | 138 | 0.0 | 0.0 | 0.00 | 0.00 | 0.00 | 40 | 1015.5 |
| 20260506163928 | 61 | 92 | 0.0 | 0.0 | 0.00 | 0.00 | 0.00 | 40 | 1015.6 |
| 20260506161418 | 60 | 150 | 0.0 | 0.0 | 0.00 | 0.00 | 0.00 | 43 | 1015.5 |
| 20260506160207 | 59 | 92 | 0.0 | 0.0 | 0.00 | 0.00 | 0.00 | 45 | 1015.7 |
| 20260506155038 | 58 | 55 | 0.0 | 0.0 | 0.00 | 0.00 | 0.00 | 46 | 1015.7 |
| 20260506153832 | 57 | 67 | 0.0 | 0.0 | 0.00 | 0.00 | 0.00 | 49 | 1015.9 |
| 20260506152558 | 56 | 90 | 0.0 | 0.0 | 0.00 | 0.00 | 0.00 | 50 | 1015.9 |
| 20260506151359 | 55 | 80 | 0.0 | 1.0 | 0.00 | 0.00 | 0.00 | 49 | 1015.9 |
| 20260506150147 | 55 | 85 | 0.0 | 0.0 | 0.00 | 0.00 | 0.00 | 53 | 1015.9 |
| 20260506142209 | 53 | 72 | 0.0 | 0.0 | 0.00 | 0.00 | 0.00 | 59 | 1015.9 |
| 20260506141002 | 52 | 65 | 0.0 | 0.0 | 0.00 | 0.00 | 0.00 | 61 | 1016.0 |
| 20260506135825 | 51 | 71 | 0.0 | 0.0 | 0.00 | 0.00 | 0.00 | 67 | 1016.0 |
| 20260506134557 | 50 | 86 | 0.0 | 0.0 | 0.00 | 0.00 | 0.00 | 68 | 1015.9 |
| 20260506133353 | 50 | 85 | 0.0 | 0.0 | 0.00 | 0.00 | 0.00 | 68 | 1015.9 |
| 20260506132134 | 49 | 86 | 0.0 | 0.0 | 0.00 | 0.00 | 0.00 | 68 | 1015.7 |
| 20260506130938 | 48 | 82 | 0.0 | 0.0 | 0.00 | 0.00 | 0.00 | 74 | 1015.6 |
| 20260506125700 | 48 | 77 | 0.0 | 0.0 | 0.00 | 0.00 | 0.00 | 73 | 1015.5 |
| 20260506124524 | 48 | 77 | 0.0 | 0.0 | 0.00 | 0.00 | 0.00 | 69 | 1015.4 |
| 20260506123312 | 48 | 77 | 0.0 | 0.0 | 0.00 | 0.00 | 0.00 | 68 | 1015.4 |
| 20260506122051 | 48 | 78 | 0.0 | 0.0 | 0.00 | 0.00 | 0.00 | 68 | 1015.3 |
| 20260506120815 | 48 | 93 | 0.0 | 0.0 | 0.00 | 0.00 | 0.00 | 68 | 1015.1 |
| 20260506115539 | 48 | 82 | 0.0 | 0.0 | 0.00 | 0.00 | 0.00 | 69 | 1015.1 |
| 20260506114402 | 48 | 89 | 0.0 | 0.0 | 0.00 | 0.00 | 0.00 | 69 | 1015.2 |
| 20260506113148 | 48 | 91 | 0.0 | 0.0 | 0.00 | 0.00 | 0.00 | 68 | 1015.2 |
| 20260506110711 | 49 | 90 | 0.0 | 0.0 | 0.00 | 0.00 | 0.00 | 68 | 1015.1 |
| 20260506105525 | 49 | 92 | 0.0 | 0.0 | 0.00 | 0.00 | 0.00 | 67 | 1015.0 |
| 20260506104301 | 50 | 96 | 0.0 | 0.0 | 0.00 | 0.00 | 0.00 | 65 | 1015.0 |
| 20260506103109 | 50 | 97 | 0.0 | 0.0 | 0.00 | 0.00 | 0.00 | 65 | 1014.9 |
| 20260506101930 | 50 | 77 | 0.0 | 0.0 | 0.00 | 0.00 | 0.00 | 67 | 1014.9 |
| 20260506100726 | 51 | 73 | 0.0 | 0.0 | 0.00 | 0.00 | 0.00 | 64 | 1014.9 |
| 20260506095505 | 51 | 74 | 0.0 | 0.0 | 0.00 | 0.00 | 0.00 | 64 | 1014.8 |
| 20260506094319 | 52 | 86 | 0.0 | 0.0 | 0.00 | 0.00 | 0.00 | 63 | 1014.8 |
| 20260506093115 | 52 | 86 | 0.0 | 0.0 | 0.00 | 0.00 | 0.00 | 63 | 1014.8 |
| 20260506091936 | 52 | 88 | 0.0 | 0.0 | 0.00 | 0.00 | 0.00 | 64 | 1014.8 |
| 20260506090739 | 52 | 86 | 0.0 | 0.0 | 0.00 | 0.00 | 0.00 | 67 | 1014.8 |
| 20260506085524 | 52 | 87 | 0.0 | 0.0 | 0.00 | 0.00 | 0.00 | 67 | 1014.7 |
| 20260506084247 | 52 | 66 | 0.0 | 0.0 | 0.00 | 0.00 | 0.00 | 66 | 1014.7 |
| 20260506083031 | 53 | 66 | 0.0 | 0.0 | 0.00 | 0.00 | 0.00 | 63 | 1014.7 |
| 20260506081833 | 54 | 64 | 0.0 | 0.0 | 0.00 | 0.00 | 0.00 | 59 | 1014.5 |
| 20260506080608 | 56 | 122 | 0.0 | 0.0 | 0.00 | 0.00 | 0.00 | 49 | 1014.4 |
| 20260506073005 | 55 | 130 | 0.0 | 0.0 | 0.00 | 0.00 | 0.00 | 54 | 1014.2 |
| 20260506070445 | 55 | 104 | 0.0 | 0.0 | 0.00 | 0.00 | 0.00 | 58 | 1014.2 |
| 20260506061645 | 56 | 125 | 0.0 | 0.0 | 0.00 | 0.00 | 0.00 | 55 | 1013.7 |
| 20260506060431 | 56 | 125 | 0.0 | 0.0 | 0.00 | 0.00 | 0.00 | 54 | 1013.6 |
| 20260506050335 | 60 | 99 | 0.0 | 3.0 | 0.00 | 0.00 | 0.00 | 47 | 1012.9 |
| 20260506044028 | 61 | 28 | 0.0 | 0.0 | 0.00 | 0.00 | 0.00 | 45 | 1012.7 |
| 20260506042754 | 62 | 28 | 0.0 | 0.0 | 0.00 | 0.00 | 0.00 | 42 | 1012.6 |
| 20260506040253 | 64 | 15 | 0.0 | 0.0 | 0.00 | 0.00 | 0.00 | 38 | 1012.5 |
| 20260506033721 | 65 | 12 | 0.0 | 0.0 | 0.00 | 0.00 | 0.00 | 35 | 1012.3 |
| 20260506032550 | 66 | 12 | 0.0 | 0.0 | 0.00 | 0.00 | 0.00 | 33 | 1012.3 |
| 20260506031341 | 67 | 12 | 0.0 | 0.0 | 0.00 | 0.00 | 0.00 | 31 | 1012.2 |
| 20260506030205 | 68 | 12 | 0.0 | 0.0 | 0.00 | 0.00 | 0.00 | 30 | 1012.1 |
| 20260506025024 | 69 | 12 | 0.0 | 0.0 | 0.00 | 0.00 | 0.00 | 29 | 1012.1 |
| 20260506023847 | 70 | 12 | 0.0 | 0.0 | 0.00 | 0.00 | 0.00 | 29 | 1012.1 |
| 20260506022703 | 71 | 34 | 0.0 | 0.0 | 0.00 | 0.00 | 0.00 | 27 | 1012.1 |
| 20260506021514 | 70 | 38 | 0.0 | 0.0 | 0.00 | 0.00 | 0.00 | 26 | 1012.1 |
| 20260506020235 | 70 | 38 | 0.0 | 0.0 | 0.00 | 0.00 | 0.00 | 26 | 1012.1 |
| 20260506015024 | 70 | 333 | 0.0 | 0.0 | 0.00 | 0.00 | 0.00 | 26 | 1012.1 |
| 20260506013841 | 71 | 24 | 0.0 | 0.0 | 0.00 | 0.00 | 0.00 | 26 | 1012.1 |
| 20260506012617 | 70 | 350 | 0.0 | 0.0 | 0.00 | 0.00 | 0.00 | 27 | 1012.0 |
| 20260506011445 | 71 | 39 | 0.0 | 4.0 | 0.00 | 0.00 | 0.00 | 26 | 1012.1 |